Location: *
(46.4000°N, 12.6667°E)
Time: 07:57:41
(UTC+00:00)

Cosmos 1461 - Visible Passes

Search period start: 11 August 2020 00:00
Search period end: 21 August 2020 00:00
Orbit: 502 x 664 km, 65.0° (Epoch: 10 August)

Date Brightness Start Highest point End Pass type
(mag) Time Alt. Az. Time Alt. Az. Time Alt. Az.
11 Aug 4.0 00:33:21 40° E 00:33:21 40° E 00:36:57 10° NE visible
11 Aug 4.4 02:09:44 20° W 02:11:54 30° NW 02:15:57 10° NNE visible
12 Aug 3.4 00:38:56 59° ENE 00:38:56 59° ENE 00:42:51 10° NE visible
12 Aug 4.9 02:15:18 14° W 02:17:54 22° NW 02:21:31 10° NNE visible
13 Aug 3.2 00:44:29 69° N 00:44:29 69° N 00:48:38 10° NE visible
13 Aug 5.3 02:20:59 10° WNW 02:23:57 17° NNW 02:27:01 10° N visible
13 Aug 5.5 23:13:38 14° ENE 23:13:38 14° ENE 23:14:34 10° ENE visible
14 Aug 3.6 00:50:00 51° NW 00:50:00 51° NW 00:54:21 10° NNE visible
14 Aug 5.5 02:27:46 10° WNW 02:30:05 14° NNW 02:32:25 10° N visible
14 Aug 5.2 23:19:07 20° ENE 23:19:07 20° ENE 23:20:46 10° NE visible
15 Aug 4.1 00:55:29 35° NW 00:55:45 35° NW 01:00:00 10° NNE visible
15 Aug 5.7 02:34:55 10° NW 02:36:14 11° NNW 02:37:35 10° N visible
15 Aug 4.8 23:24:34 26° NE 23:24:34 26° NE 23:26:44 10° NE visible
16 Aug 4.7 01:00:56 24° NW 01:01:42 26° NW 01:05:35 10° NNE visible
16 Aug 4.6 23:29:59 33° NE 23:29:59 33° NE 23:32:35 10° NE visible
17 Aug 5.1 01:06:21 17° WNW 01:07:44 20° NNW 01:11:07 10° NNE visible
17 Aug 4.4 23:35:23 37° NNE 23:35:23 37° NNE 23:38:20 10° NNE visible
18 Aug 5.5 01:11:44 12° WNW 01:13:49 15° NNW 01:16:34 10° N visible
18 Aug 5.7 22:04:22 11° ENE 22:04:22 11° ENE 22:04:31 10° ENE visible
18 Aug 4.5 23:40:44 35° N 23:40:44 35° N 23:44:01 10° NNE visible
19 Aug 5.8 01:18:02 10° NW 01:19:58 12° NNW 01:21:54 10° N visible
19 Aug 5.5 22:09:42 15° NE 22:09:42 15° NE 22:10:35 10° NE visible
19 Aug 4.8 23:46:03 29° NNW 23:46:03 29° NNW 23:49:38 10° NNE visible
20 Aug 6.0 01:25:37 10° NNW 01:26:09 10° NNW 01:26:40 10° NNW visible
20 Aug 5.2 22:14:59 20° NE 22:14:59 20° NE 22:16:29 10° NE visible
20 Aug 5.1 23:51:19 22° NW 23:51:31 23° NW 23:55:11 10° NNE visible
